Location: Sunnyvale
(37.3814°N, 122.0645°W)
Time: 00:37:19
(UTC-08:00)

BlueWalker 3 - Visible Passes

Search period start: 17 December 2025 00:00
Search period end: 27 December 2025 00:00
Orbit: 454 x 462 km, 53.2° (Epoch: 16 December)

Date Brightness Start Highest point End Pass type
(mag) Time Alt. Az. Time Alt. Az. Time Alt. Az.
19 Dec 2.5 06:32:14 10° SSW 06:35:43 55° SE 06:39:14 10° NE visible
20 Dec 3.2 05:57:27 10° SSW 06:00:49 39° SE 06:04:12 10° ENE visible
21 Dec 3.7 05:22:58 11° S 05:25:55 29° SE 05:29:05 10° ENE visible
22 Dec 4.1 04:51:14 22° ESE 04:51:14 22° ESE 04:53:51 10° ENE visible
22 Dec 2.4 06:25:06 10° WSW 06:28:24 36° NW 06:31:45 10° NNE visible
23 Dec 2.0 05:52:45 41° WNW 05:53:23 47° NW 05:56:52 10° NE visible
24 Dec 3.2 05:20:01 29° NNE 05:20:01 29° NNE 05:21:58 10° NE visible
25 Dec 3.6 06:20:48 14° NW 06:21:25 14° NNW 06:23:29 10° N visible
26 Dec 3.9 05:47:36 15° N 05:47:36 15° N 05:48:45 10° NNE visible
